SKYSAT-C8

Last updated on Wed Sep 17 2025 00:02:31 GMT+0000 (Coordinated Universal Time)

1 42990U 17068D 25258.93785677 .00012524 00000+0 40663-3 0 9995 2 42990 97.4175 28.6755 0001864 106.8726 253.2721 15.32081153440268
UTC large
Height (km)
Speed (km/s)
/
Latitude / Longitude
Inclination (degrees)
Orbital Period (minutes)
Azimuth
Elevation
Range (km)
Doppler Factor

Next 0 passes for location: London (51.5072 / 0.1276)

Sorry there are no passes over London.